CSA576 LKPR-EDDV

Flight info

Callsign CSA576
Flight time 0h 48m
Altitude 28000
Route VENOX DCT DEKOV Y621 ESLOR M748 BOLBO DCT BUREL P203 HLZ HLZ1Z
Aircraft A319/M-SDE3FGHIRWY/LB1

Departure

Time 2026-05-07 04:23
Airport Václav Havel Airport Prague (LKPR)

Arrival

Time 2026-05-07 05:12
Airport Hannover Airport (EDDV)
Time Latitude Longitude Altitude Speed Heading
2026-05-07 04:08 50.10595 14.26283 1174 ft 0 kts 35°
2026-05-07 04:13 50.10579 14.26266 1172 ft 4 kts 35°
2026-05-07 04:13 50.10557 14.26241 1170 ft 4 kts 41°
2026-05-07 04:14 50.10540 14.26211 1171 ft 4 kts 79°
2026-05-07 04:14 50.10539 14.26197 1171 ft 1 kts 101°
2026-05-07 04:14 50.10535 14.26235 1171 ft 4 kts 101°
2026-05-07 04:14 50.10523 14.26272 1174 ft 4 kts 124°
2026-05-07 04:15 50.10509 14.26304 1173 ft 2 kts 124°
2026-05-07 04:15 50.10508 14.26305 1173 ft 0 kts 124°
2026-05-07 04:17 50.10507 14.26308 1173 ft 1 kts 124°
2026-05-07 04:17 50.10499 14.26325 1171 ft 5 kts 124°
2026-05-07 04:17 50.10457 14.26421 1172 ft 12 kts 124°
2026-05-07 04:17 50.10407 14.26533 1171 ft 13 kts 124°
2026-05-07 04:18 50.10345 14.26614 1174 ft 12 kts 191°
2026-05-07 04:18 50.10277 14.26546 1174 ft 11 kts 214°
2026-05-07 04:18 50.10219 14.26563 1175 ft 9 kts 132°
2026-05-07 04:18 50.10172 14.26655 1176 ft 13 kts 127°
2026-05-07 04:19 50.10115 14.26768 1183 ft 13 kts 129°
2026-05-07 04:19 50.10064 14.26875 1190 ft 11 kts 127°
2026-05-07 04:19 50.10019 14.26968 1195 ft 10 kts 127°
2026-05-07 04:19 50.09974 14.27060 1198 ft 11 kts 128°
2026-05-07 04:20 50.09924 14.27164 1201 ft 12 kts 127°
2026-05-07 04:20 50.09876 14.27260 1202 ft 11 kts 128°
2026-05-07 04:20 50.09830 14.27348 1203 ft 10 kts 130°
2026-05-07 04:21 50.09742 14.27480 1206 ft 8 kts 137°
2026-05-07 04:21 50.09702 14.27542 1206 ft 8 kts 134°
2026-05-07 04:21 50.09665 14.27600 1208 ft 7 kts 135°
2026-05-07 04:21 50.09627 14.27653 1210 ft 7 kts 152°
2026-05-07 04:22 50.09593 14.27626 1211 ft 6 kts 217°
2026-05-07 04:22 50.09546 14.27576 1213 ft 11 kts 214°
2026-05-07 04:22 50.09468 14.27487 1211 ft 16 kts 216°
2026-05-07 04:22 50.09443 14.27343 1209 ft 17 kts 306°
2026-05-07 04:23 50.09548 14.27117 1207 ft 47 kts 305°
2026-05-07 04:23 50.09903 14.26384 1200 ft 120 kts 307°
2026-05-07 04:23 50.10504 14.25108 1360 ft 158 kts 303°
2026-05-07 04:23 50.11166 14.23723 2071 ft 161 kts 302°
2026-05-07 04:24 50.11845 14.22343 2819 ft 160 kts 302°
2026-05-07 04:24 50.12535 14.20982 3543 ft 160 kts 303°
2026-05-07 04:24 50.13270 14.19530 3908 ft 182 kts 303°
2026-05-07 04:24 50.14087 14.17856 4197 ft 209 kts 303°
2026-05-07 04:25 50.14994 14.15932 4571 ft 237 kts 303°
2026-05-07 04:25 50.15992 14.13759 5254 ft 251 kts 302°
2026-05-07 04:25 50.16997 14.11512 6233 ft 256 kts 302°
2026-05-07 04:25 50.18095 14.09270 7081 ft 264 kts 306°
2026-05-07 04:26 50.19269 14.07009 7940 ft 271 kts 305°
2026-05-07 04:26 50.20463 14.04690 8846 ft 276 kts 305°
2026-05-07 04:26 50.21684 14.02347 9796 ft 280 kts 308°
2026-05-07 04:26 50.23143 14.00279 10625 ft 291 kts 321°
2026-05-07 04:27 50.25026 13.98834 11094 ft 316 kts 340°
2026-05-07 04:27 50.27267 13.98397 11414 ft 343 kts 356°
2026-05-07 04:27 50.29722 13.98327 11835 ft 359 kts 356°
2026-05-07 04:27 50.32239 13.98231 12635 ft 363 kts 356°
2026-05-07 04:28 50.34785 13.98610 13348 ft 373 kts 10°
2026-05-07 04:28 50.37279 13.99846 14008 ft 380 kts 21°
2026-05-07 04:28 50.39686 14.01627 14683 ft 385 kts 25°
2026-05-07 04:28 50.42116 14.03440 15358 ft 389 kts 24°
2026-05-07 04:29 50.44581 14.05257 16031 ft 393 kts 24°
2026-05-07 04:29 50.47068 14.07088 16695 ft 398 kts 24°
2026-05-07 04:29 50.49588 14.08952 17355 ft 402 kts 24°
2026-05-07 04:29 50.52126 14.10843 18020 ft 406 kts 24°
2026-05-07 04:30 50.54715 14.12655 18585 ft 410 kts 19°
2026-05-07 04:30 50.57471 14.13867 19147 ft 413 kts
2026-05-07 04:30 50.60319 14.14573 19705 ft 416 kts
2026-05-07 04:30 50.63204 14.15257 20258 ft 421 kts
2026-05-07 04:31 50.66119 14.15944 20813 ft 425 kts
2026-05-07 04:31 50.69057 14.16640 21358 ft 430 kts
2026-05-07 04:31 50.72028 14.17347 21899 ft 434 kts
2026-05-07 04:31 50.75032 14.18067 22401 ft 439 kts
2026-05-07 04:32 50.78061 14.18798 22914 ft 442 kts
2026-05-07 04:32 50.81123 14.19540 23416 ft 447 kts
2026-05-07 04:32 50.84202 14.20290 23835 ft 450 kts
2026-05-07 04:32 50.87269 14.21025 24259 ft 452 kts
2026-05-07 04:33 50.90411 14.21290 24680 ft 452 kts 355°
2026-05-07 04:33 50.93541 14.20818 25096 ft 452 kts 348°
2026-05-07 04:33 50.96667 14.20102 25519 ft 455 kts 348°
2026-05-07 04:33 50.99819 14.19397 25927 ft 459 kts 349°
2026-05-07 04:34 51.02959 14.18458 26331 ft 459 kts 341°
2026-05-07 04:34 51.05975 14.16805 26733 ft 458 kts 332°
2026-05-07 04:34 51.08779 14.14448 27127 ft 456 kts 323°
2026-05-07 04:34 51.11325 14.11451 27507 ft 454 kts 315°
2026-05-07 04:35 51.13678 14.08177 27804 ft 457 kts 314°
2026-05-07 04:35 51.16064 14.04850 27869 ft 455 kts 314°
2026-05-07 04:35 51.18444 14.01533 27869 ft 454 kts 314°
2026-05-07 04:35 51.20821 13.98218 27872 ft 454 kts 314°
2026-05-07 04:36 51.23201 13.94909 27871 ft 454 kts 314°
2026-05-07 04:36 51.25579 13.91595 27870 ft 454 kts 314°
2026-05-07 04:36 51.27956 13.88273 27873 ft 454 kts 314°
2026-05-07 04:36 51.30332 13.84946 27862 ft 454 kts 314°
2026-05-07 04:37 51.32704 13.81622 27872 ft 454 kts 314°
2026-05-07 04:37 51.35082 13.78286 27871 ft 454 kts 314°
2026-05-07 04:37 51.37452 13.74953 27878 ft 454 kts 315°
2026-05-07 04:37 51.39819 13.71621 27877 ft 454 kts 315°
2026-05-07 04:38 51.42188 13.68279 27885 ft 453 kts 315°
2026-05-07 04:38 51.44531 13.64967 27888 ft 453 kts 315°
2026-05-07 04:38 51.46899 13.61625 27898 ft 453 kts 315°
2026-05-07 04:38 51.49264 13.58286 27899 ft 453 kts 315°
2026-05-07 04:39 51.51630 13.54937 27902 ft 453 kts 315°
2026-05-07 04:39 51.53997 13.51582 27905 ft 452 kts 315°
2026-05-07 04:39 51.56352 13.48240 27906 ft 452 kts 315°
2026-05-07 04:39 51.58710 13.44888 27908 ft 452 kts 315°
2026-05-07 04:40 51.60272 13.42664 27911 ft 452 kts 315°
2026-05-07 04:40 51.63391 13.38208 27914 ft 451 kts 315°
2026-05-07 04:40 51.65738 13.34854 27914 ft 451 kts 315°
2026-05-07 04:40 51.68083 13.31503 27917 ft 451 kts 315°
2026-05-07 04:41 51.69668 13.29235 27913 ft 451 kts 315°
2026-05-07 04:41 51.72011 13.25871 27919 ft 450 kts 315°
2026-05-07 04:41 51.74317 13.22546 27921 ft 450 kts 315°
2026-05-07 04:41 51.76649 13.19175 27919 ft 450 kts 316°
2026-05-07 04:42 51.78929 13.15730 27921 ft 448 kts 311°
2026-05-07 04:42 51.80896 13.11846 27921 ft 445 kts 302°
2026-05-07 04:42 51.82660 13.07757 27925 ft 444 kts 302°
2026-05-07 04:42 51.84433 13.03654 27925 ft 444 kts 302°
2026-05-07 04:43 51.86205 12.99563 27918 ft 444 kts 303°
2026-05-07 04:43 51.87976 12.95474 27920 ft 444 kts 303°
2026-05-07 04:43 51.89745 12.91385 27921 ft 443 kts 303°
2026-05-07 04:43 51.91515 12.87284 27923 ft 443 kts 303°
2026-05-07 04:44 51.93275 12.83193 27914 ft 443 kts 303°
2026-05-07 04:44 51.95031 12.79100 27915 ft 442 kts 303°
2026-05-07 04:44 51.96787 12.75002 27921 ft 442 kts 303°
2026-05-07 04:44 51.98521 12.70948 27921 ft 442 kts 303°
2026-05-07 04:45 52.00270 12.66852 27919 ft 442 kts 303°
2026-05-07 04:45 52.02017 12.62752 27918 ft 441 kts 303°
2026-05-07 04:45 52.03759 12.58653 27920 ft 441 kts 303°
2026-05-07 04:45 52.05498 12.54555 27913 ft 441 kts 303°
2026-05-07 04:46 52.07245 12.50444 27915 ft 441 kts 303°
2026-05-07 04:46 52.08991 12.46335 27913 ft 441 kts 303°
2026-05-07 04:46 52.10735 12.42226 27915 ft 441 kts 303°
2026-05-07 04:46 52.12472 12.38110 27915 ft 441 kts 303°
2026-05-07 04:47 52.14208 12.33986 27911 ft 441 kts 303°
2026-05-07 04:47 52.15945 12.29857 27915 ft 441 kts 303°
2026-05-07 04:47 52.17676 12.25732 27912 ft 441 kts 303°
2026-05-07 04:47 52.19386 12.21657 27916 ft 441 kts 303°
2026-05-07 04:48 52.21118 12.17517 27916 ft 441 kts 303°
2026-05-07 04:48 52.22849 12.13374 27916 ft 441 kts 303°
2026-05-07 04:48 52.24577 12.09238 27919 ft 441 kts 303°
2026-05-07 04:48 52.26304 12.05104 27918 ft 441 kts 303°
2026-05-07 04:49 52.28030 12.00963 27918 ft 441 kts 303°
2026-05-07 04:49 52.29753 11.96819 27919 ft 441 kts 303°
2026-05-07 04:49 52.31475 11.92669 27922 ft 441 kts 302°
2026-05-07 04:49 52.32961 11.88303 27918 ft 440 kts 292°
2026-05-07 04:50 52.33989 11.83604 27921 ft 438 kts 283°
2026-05-07 04:50 52.34545 11.78715 27920 ft 437 kts 274°
2026-05-07 04:50 52.34698 11.73765 27920 ft 436 kts 270°
2026-05-07 04:50 52.34800 11.68801 27920 ft 436 kts 270°
2026-05-07 04:51 52.34907 11.63842 27921 ft 437 kts 270°
2026-05-07 04:51 52.35016 11.58872 27924 ft 437 kts 270°
2026-05-07 04:51 52.35123 11.53901 27922 ft 437 kts 270°
2026-05-07 04:51 52.35223 11.48926 27922 ft 437 kts 270°
2026-05-07 04:52 52.35315 11.44010 27921 ft 438 kts 270°
2026-05-07 04:52 52.35407 11.39026 27920 ft 438 kts 270°
2026-05-07 04:52 52.35498 11.34039 27920 ft 438 kts 270°
2026-05-07 04:52 52.35585 11.29052 27921 ft 438 kts 270°
2026-05-07 04:53 52.35669 11.24066 27920 ft 439 kts 270°
2026-05-07 04:53 52.35753 11.19072 27922 ft 439 kts 270°
2026-05-07 04:53 52.35835 11.14074 27684 ft 440 kts 270°
2026-05-07 04:53 52.35913 11.09072 27420 ft 441 kts 270°
2026-05-07 04:54 52.35988 11.04055 27157 ft 441 kts 270°
2026-05-07 04:54 52.36064 10.99055 26721 ft 439 kts 270°
2026-05-07 04:54 52.36139 10.94077 26041 ft 435 kts 270°
2026-05-07 04:54 52.36211 10.89174 25391 ft 430 kts 270°
2026-05-07 04:55 52.36310 10.84284 24744 ft 427 kts 273°
2026-05-07 04:55 52.36781 10.79504 24107 ft 425 kts 282°
2026-05-07 04:55 52.37728 10.74926 23470 ft 424 kts 292°
2026-05-07 04:55 52.39016 10.70594 22795 ft 421 kts 295°
2026-05-07 04:56 52.40311 10.66313 22221 ft 417 kts 295°
2026-05-07 04:56 52.41581 10.62084 21655 ft 412 kts 295°
2026-05-07 04:56 52.42816 10.57934 21137 ft 408 kts 294°
2026-05-07 04:56 52.44048 10.53768 20616 ft 405 kts 294°
2026-05-07 04:57 52.45285 10.49574 20107 ft 402 kts 294°
2026-05-07 04:57 52.46497 10.45463 19608 ft 399 kts 295°
2026-05-07 04:57 52.47687 10.41433 19125 ft 396 kts 295°
2026-05-07 04:57 52.48884 10.37379 18628 ft 394 kts 295°
2026-05-07 04:58 52.50073 10.33346 18090 ft 392 kts 295°
2026-05-07 04:58 52.51256 10.29329 17553 ft 389 kts 295°
2026-05-07 04:58 52.51982 10.26856 17230 ft 387 kts 295°
2026-05-07 04:58 52.52752 10.24233 16708 ft 381 kts 298°
2026-05-07 04:59 52.54017 10.20419 16289 ft 375 kts 297°
2026-05-07 04:59 52.55163 10.16599 15841 ft 371 kts 295°
2026-05-07 04:59 52.56242 10.12760 15312 ft 369 kts 294°
2026-05-07 04:59 52.57299 10.08920 14785 ft 368 kts 294°
2026-05-07 05:00 52.58335 10.05083 14260 ft 367 kts 291°
2026-05-07 05:00 52.59024 10.01059 13725 ft 366 kts 280°
2026-05-07 05:00 52.59310 9.96922 13134 ft 364 kts 275°
2026-05-07 05:00 52.59543 9.92777 12588 ft 362 kts 275°
2026-05-07 05:01 52.59776 9.88669 12029 ft 359 kts 275°
2026-05-07 05:01 52.60009 9.84595 11470 ft 357 kts 275°
2026-05-07 05:01 52.60236 9.80541 10903 ft 355 kts 275°
2026-05-07 05:01 52.60460 9.76520 10575 ft 347 kts 275°
2026-05-07 05:02 52.60671 9.72704 10449 ft 333 kts 275°
2026-05-07 05:02 52.60876 9.68993 10326 ft 320 kts 275°
2026-05-07 05:02 52.61074 9.65420 10195 ft 308 kts 275°
2026-05-07 05:02 52.61267 9.61945 10006 ft 301 kts 275°
2026-05-07 05:03 52.61455 9.58516 9927 ft 300 kts 275°
2026-05-07 05:03 52.61643 9.55074 9496 ft 304 kts 275°
2026-05-07 05:03 52.61826 9.51626 9092 ft 302 kts 275°
2026-05-07 05:03 52.62005 9.48219 8680 ft 300 kts 275°
2026-05-07 05:04 52.62186 9.44784 8277 ft 298 kts 275°
2026-05-07 05:04 52.62165 9.41404 7843 ft 294 kts 256°
2026-05-07 05:04 52.61283 9.38454 7264 ft 286 kts 226°
2026-05-07 05:04 52.59697 9.36607 6642 ft 278 kts 197°
2026-05-07 05:05 52.57835 9.35946 5967 ft 273 kts 186°
2026-05-07 05:05 52.55960 9.35470 5302 ft 271 kts 186°
2026-05-07 05:05 52.54119 9.35007 4798 ft 265 kts 186°
2026-05-07 05:05 52.52375 9.34562 4601 ft 245 kts 186°
2026-05-07 05:06 52.50727 9.34443 4274 ft 229 kts 169°
2026-05-07 05:06 52.49267 9.35099 4153 ft 210 kts 153°
2026-05-07 05:06 52.48056 9.36319 4030 ft 199 kts 138°
2026-05-07 05:06 52.47142 9.37916 3905 ft 186 kts 124°
2026-05-07 05:07 52.46528 9.39734 3692 ft 179 kts 111°
2026-05-07 05:07 52.46209 9.41669 3480 ft 173 kts 98°
2026-05-07 05:07 52.46132 9.43618 3266 ft 169 kts 92°
2026-05-07 05:07 52.46083 9.45546 3040 ft 169 kts 92°
2026-05-07 05:08 52.46034 9.47476 2805 ft 170 kts 91°
2026-05-07 05:08 52.45985 9.49369 2575 ft 165 kts 91°
2026-05-07 05:08 52.45937 9.51219 2352 ft 156 kts 91°
2026-05-07 05:08 52.45895 9.52825 2158 ft 144 kts 91°
2026-05-07 05:09 52.45854 9.54364 1980 ft 130 kts 90°
2026-05-07 05:09 52.45816 9.55813 1801 ft 124 kts 90°
2026-05-07 05:09 52.45779 9.57213 1660 ft 123 kts 90°
2026-05-07 05:09 52.45743 9.58609 1491 ft 122 kts 89°
2026-05-07 05:10 52.45715 9.59994 1279 ft 121 kts 89°
2026-05-07 05:10 52.45669 9.61390 1025 ft 123 kts 90°
2026-05-07 05:10 52.45626 9.62784 753 ft 123 kts 88°
2026-05-07 05:10 52.45598 9.64193 642 ft 124 kts 88°
2026-05-07 05:11 52.45549 9.65598 487 ft 126 kts 89°
2026-05-07 05:11 52.45515 9.67020 290 ft 125 kts 88°
2026-05-07 05:11 52.45473 9.68421 185 ft 114 kts 91°
2026-05-07 05:11 52.45455 9.69384 192 ft 75 kts 92°
2026-05-07 05:12 52.45435 9.70001 182 ft 43 kts 93°
2026-05-07 05:12 52.45423 9.70445 183 ft 28 kts 91°
2026-05-07 05:12 52.45452 9.70665 182 ft 18 kts 17°
2026-05-07 05:12 52.45574 9.70632 179 ft 18 kts 302°
2026-05-07 05:13 52.45584 9.70421 179 ft 19 kts 271°
2026-05-07 05:13 52.45588 9.70202 179 ft 19 kts 281°
2026-05-07 05:13 52.45598 9.69979 179 ft 19 kts 271°
2026-05-07 05:13 52.45604 9.69861 179 ft 9 kts 293°
2026-05-07 05:14 52.45658 9.69818 179 ft 9 kts 331°
2026-05-07 05:14 52.45673 9.69716 179 ft 10 kts 267°
2026-05-07 05:14 52.45677 9.69592 179 ft 11 kts 273°
2026-05-07 05:14 52.45704 9.69500 179 ft 8 kts 351°
2026-05-07 05:15 52.45749 9.69441 179 ft 9 kts 308°
2026-05-07 05:15 52.45759 9.69337 179 ft 9 kts 287°
2026-05-07 05:15 52.45785 9.69336 179 ft 3 kts 26°
2026-05-07 05:15 52.45802 9.69358 179 ft 4 kts 32°
2026-05-07 05:16 52.45827 9.69382 179 ft 5 kts 31°
2026-05-07 05:16 52.45839 9.69392 179 ft 0 kts 31°
2026-05-07 05:16 52.45839 9.69393 179 ft 0 kts 31°